Grand Forks AFB, ND

10:16 PM CST on February 17, 2018 (GMT -0600)
Grand Forks Air Force Base

Weather History for KRDR - March, 2013

Change the Weather History Date:

Tuesday, March 26, 2013

  Actual Average Record
Temperature  
Mean Temperature 14 °F -  
Max Temperature 25 °F 38 °F 57 °F (1998)
Min Temperature 2 °F 21 °F 2 °F (2013)
Degree Days  
Heating Degree Days 52    
Moisture  
Dew Point 6 °F    
Average Humidity 77    
Maximum Humidity 87    
Minimum Humidity 64    
Precipitation  
Precipitation 0.00 in - - ()
Sea Level Pressure  
Sea Level Pressure 30.35 in    
Wind  
Wind Speed 5 mph (WNW)    
Max Wind Speed 8 mph    
Max Gust Speed -    
Visibility 10 miles    
Events Snow    
Averages and records for this station are not official NWS values.
T = Trace of Precipitation, MM = Missing Value Source: NWS Daily Summary

Daily Weather History Graph

Daily Weather History Graph

Search for Another Location

Airport or City:

Trip Planner

Search our weather history database for the weather conditions in past years. The results will help you decide how hot, cold, wet, or windy it might be!

Date:

Astronomy

Mar. 26, 2013 Rise Set
Actual Time 7:19 AM CDT 7:51 PM CDT
Civil Twilight 6:48 AM CDT 8:22 PM CDT
Nautical Twilight 6:11 AM CDT 8:59 PM CDT
Astronomical Twilight 5:33 AM CDT 9:38 PM CDT
Moon 7:31 PM CDT (3/26) 6:38 AM CDT (3/26)
Length of Visible Light 13h 34m
Length of Day
12h 31m
Waxing Gibbous, 99% of the Moon is Illuminated
Mar 26
Waxing Gibbous
Mar 27
Full
Apr 2
Last Quarter
Apr 10
New
Apr 18
First Quarter

Hourly Weather History & Observations

Time (CDT) Temp. Windchill Dew Point Humidity Pressure Visibility Wind Dir Wind Speed Gust Speed Precip Events Conditions
12:53 AM 6.8 °F -4.8 °F 1.4 °F 79% 30.36 in 10.0 mi NW 6.9 mph - N/A Snow Light Snow
12:55 AM 6.1 °F -5.6 °F 2.3 °F 84% 30.36 in 10.0 mi NW 6.9 mph - N/A   Clear
1:03 AM 5.0 °F -8.1 °F 1.4 °F 85% 30.36 in 10.0 mi WNW 8.1 mph - N/A   Clear
1:55 AM 6.6 °F -5.0 °F 2.7 °F 84% 30.37 in 10.0 mi WNW 6.9 mph - 0.00 in   Clear
2:55 AM 5.2 °F -6.7 °F 1.4 °F 84% 30.36 in 10.0 mi NW 6.9 mph - N/A   Clear
3:55 AM 4.6 °F -8.5 °F 0.5 °F 83% 30.36 in 10.0 mi WNW 8.1 mph - N/A   Clear
4:55 AM 3.6 °F -8.7 °F -0.6 °F 83% 30.35 in 10.0 mi WNW 6.9 mph - N/A   Clear
5:55 AM 3.7 °F -8.4 °F -0.0 °F 84% 30.35 in 10.0 mi WNW 6.9 mph - N/A   Clear
6:55 AM 3.2 °F -9.1 °F -0.6 °F 84% 30.35 in 10.0 mi WNW 6.9 mph - N/A   Clear
7:55 AM 3.2 °F -4.2 °F -0.8 °F 84% 30.36 in 10.0 mi WNW 3.5 mph - N/A   Clear
8:55 AM 6.4 °F - 0.5 °F 77% 30.36 in 10.0 mi Calm Calm - N/A   Clear
9:55 AM 11.8 °F - 2.8 °F 67% 30.36 in 10.0 mi Calm Calm - N/A   Clear
10:55 AM 16.2 °F - 8.1 °F 70% 30.36 in 10.0 mi Calm Calm - N/A   Clear
11:55 AM 17.4 °F - 9.5 °F 71% 30.37 in 10.0 mi Calm Calm - N/A   Clear
12:55 PM 22.5 °F - 12.4 °F 65% 30.36 in 10.0 mi Calm Calm - N/A   Clear
1:55 PM 22.8 °F 16.7 °F 13.6 °F 68% 30.36 in 10.0 mi SSW 4.6 mph - N/A   Clear
2:55 PM 23.9 °F 19.5 °F 14.0 °F 66% 30.35 in 10.0 mi Variable 3.5 mph - N/A   Clear
3:55 PM 24.1 °F 19.7 °F 14.0 °F 65% 30.34 in 10.0 mi SSW 3.5 mph - N/A   Clear
4:55 PM 24.3 °F - 13.8 °F 64% 30.33 in 10.0 mi Calm Calm - N/A   Clear
5:55 PM 23.9 °F - 14.2 °F 66% 30.32 in 10.0 mi Calm Calm - N/A   Clear
6:55 PM 22.5 °F 16.3 °F 14.2 °F 71% 30.32 in 10.0 mi SSE 4.6 mph - N/A   Clear
7:55 PM 20.8 °F - 13.5 °F 73% 30.32 in 10.0 mi Calm Calm - N/A   Clear
8:55 PM 12.2 °F - 8.6 °F 85% 30.32 in 10.0 mi Calm Calm - N/A   Clear
9:55 PM 8.6 °F - 5.4 °F 87% 30.33 in 10.0 mi Calm Calm - N/A   Clear
10:55 PM 5.5 °F - 1.9 °F 85% 30.34 in 10.0 mi Calm Calm - N/A   Clear
11:55 PM 2.3 °F - -2.0 °F 82% 30.33 in 8.0 mi Calm Calm - N/A   Clear